Torna al catalogo

STARLINK-4542

AttivoComunicazioniVLEO
NORAD 53435·PAYLOAD·🇺🇸 United States

Lanciato Aug 10, 2022 da Cape Canaveral Space Force Station

Loading…

Prossimi Passaggi (prossime 24 ore)

TLE

AggiornatoSource: CelesTrak SupGP

Epoca: Sep 14, 2026, 21:33 UTC

1 53435C 22097AZ  26257.89840278 -.00017538  00000+0 -51828-3 0  2577
2 53435  53.1593 319.7020 0001233  82.0528 261.9117 15.34392221    14

Traccia STARLINK-4542 in tempo reale con AllMySat

Download on the App Store